QPF
0.00 0.00 0.00 0.00 0.00 0.00 0.00 0.00 0.00 0.00 0.00 0.00 0.00 0.01 0.01 0.01 0.01 0.01 0.01 0.00 0.01 0.01 0.01 0.01 0.01 0.00 0.01 0.01 0.01 0.01 0.01 0.02 0.02 0.02 0.02 0.03 0.03 0.04 0.04 0.03 0.02 0.02 0.02 0.02
0.00 0.00 0.00 0.00 0.00 0.00 0.00 0.00 0.00 0.00 0.00 0.00 0.00 0.00 0.01 0.01 0.01 0.01 0.01 0.01 0.01 0.01 0.01 0.01 0.01 0.01 0.01 0.01 0.01 0.01 0.01 0.03 0.02 0.02 0.02 0.02 0.02 0.03 0.03 0.04 0.04 0.02 0.01 0.02
0.00 0.00 0.00 0.00 0.00 0.00 0.00 0.00 0.00 0.00 0.00 0.00 0.00 0.00 0.00 0.00 0.01 0.01 0.02 0.01 0.02 0.02 0.01 0.01 0.01 0.01 0.02 0.01 0.01 0.01 0.01 0.05 0.03 0.03 0.03 0.03 0.03 0.03 0.03 0.03 0.02 0.02 0.01 0.02
0.00 0.00 0.00 0.00 0.00 0.00 0.00 0.00 0.00 0.00 0.00 0.00 0.00 0.00 0.00 0.01 0.01 0.01 0.01 0.01 0.01 0.02 0.01 0.01 0.01 0.01 0.01 0.01 0.01 0.01 0.01 0.04 0.03 0.02 0.03 0.05 0.05 0.05 0.04 0.03 0.03 0.03 0.02 0.02
0.00 0.00 0.00 0.00 0.00 0.00 0.00 0.00 0.00 0.00 0.00 0.00 0.00 0.00 0.00 0.00 0.00 0.00 0.01 0.01 0.01 0.01 0.01 0.01 0.02 0.01 0.01 0.00 0.00 0.01 0.01 0.03 0.02 0.02 0.02 0.04 0.06 0.07 0.07 0.06 0.05 0.03 0.02 0.02
0.00 0.00 0.00 0.00 0.00 0.00 0.00 0.00 0.00 0.00 0.00 0.00 0.00 0.00 0.00 0.00 0.01 0.00 0.01 0.01 0.01 0.01 0.02 0.01 0.01 0.00 0.01 0.00 0.00 0.01 0.01 0.03 0.02 0.02 0.02 0.03 0.05 0.09 0.12 0.09 0.06 0.04 0.03 0.02
0.00 0.00 0.00 0.00 0.00 0.00 0.00 0.00 0.00 0.00 0.01 0.00 0.00 0.00 0.00 0.00 0.00 0.00 0.00 0.00 0.01 0.01 0.01 0.01 0.01 0.01 0.00 0.00 0.00 0.00 0.00 0.01 0.01 0.01 0.01 0.02 0.04 0.07 0.09 0.11 0.09 0.08 0.05 0.03
0.00 0.00 0.00 0.00 0.00 0.00 0.00 0.00 0.00 0.01 0.01 0.00 0.00 0.00 0.00 0.00 0.00 0.00 0.00 0.00 0.00 0.00 0.01 0.01 0.02 0.02 0.01 0.00 0.00 0.00 0.01 0.01 0.01 0.01 0.01 0.01 0.03 0.06 0.07 0.09 0.10 0.07 0.04 0.03
0.00 0.00 0.00 0.00 0.00 0.00 0.00 0.00 0.00 0.00 0.00 0.00 0.00 0.00 0.00 0.00 0.00 0.00 0.00 0.00 0.00 0.00 0.00 0.00 0.01 0.01 0.01 0.01 0.00 0.00 0.01 0.02 0.02 0.01 0.01 0.02 0.04 0.05 0.06 0.07 0.06 0.04 0.04 0.03
0.00 0.00 0.00 0.00 0.00 0.00 0.00 0.00 0.00 0.00 0.00 0.00 0.00 0.00 0.00 0.00 0.00 0.00 0.00 0.00 0.00 0.00 0.00 0.00 0.00 0.00 0.01 0.01 0.00 0.01 0.03 0.03 0.03 0.02 0.03 0.04 0.04 0.05 0.05 0.07 0.06 0.04 0.04 0.03
0.00 0.00 0.00 0.00 0.00 0.00 0.00 0.00 0.00 0.00 0.00 0.00 0.00 0.00 0.00 0.00 0.00 0.00 0.00 0.00 0.00 0.00 0.00 0.00 0.00 0.00 0.00 0.00 0.01 0.01 0.02 0.02 0.03 0.04 0.05 0.05 0.06 0.05 0.05 0.05 0.05 0.04 0.04 0.03
0.00 0.00 0.00 0.00 0.00 0.00 0.00 0.00 0.00 0.01 0.00 0.00 0.00 0.00 0.00 0.00 0.00 0.00 0.00 0.00 0.00 0.00 0.00 0.00 0.00 0.00 0.00 0.01 0.02 0.03 0.04 0.03 0.04 0.05 0.05 0.05 0.05 0.05 0.05 0.05 0.05 0.04 0.05 0.05
0.00 0.00 0.00 0.00 0.00 0.00 0.00 0.00 0.00 0.00 0.00 0.00 0.00 0.00 0.00 0.00 0.00 0.00 0.00 0.00 0.00 0.00 0.00 0.00 0.00 0.00 0.01 0.01 0.03 0.04 0.04 0.03 0.04 0.06 0.07 0.05 0.05 0.05 0.05 0.05 0.06 0.08 0.07 0.06
0.00 0.00 0.00 0.00 0.00 0.00 0.00 0.00 0.00 0.00 0.00 0.00 0.00 0.00 0.00 0.00 0.00 0.00 0.00 0.00 0.00 0.00 0.00 0.00 0.00 0.00 0.00 0.01 0.02 0.03 0.03 0.03 0.03 0.04 0.07 0.09 0.07 0.05 0.06 0.08 0.08 0.08 0.07 0.07
0.00 0.00 0.00 0.00 0.00 0.00 0.00 0.00 0.00 0.00 0.00 0.00 0.00 0.00 0.00 0.00 0.00 0.00 0.00 0.00 0.00 0.00 0.00 0.00 0.00 0.00 0.00 0.01 0.01 0.02 0.02 0.02 0.03 0.03 0.03 0.04 0.06 0.06 0.06 0.05 0.04 0.05 0.07 0.06
0.00 0.00 0.00 0.00 0.00 0.00 0.00 0.00 0.00 0.00 0.00 0.00 0.00 0.00 0.00 0.00 0.00 0.00 0.00 0.00 0.00 0.00 0.00 0.00 0.00 0.00 0.01 0.01 0.01 0.02 0.03 0.03 0.03 0.02 0.02 0.02 0.02 0.03 0.04 0.03 0.03 0.03 0.05 0.04
0.00 0.00 0.00 0.00 0.00 0.01 0.01 0.01 0.00 0.00 0.00 0.00 0.00 0.00 0.00 0.00 0.00 0.00 0.00 0.00 0.00 0.01 0.01 0.01 0.01 0.01 0.01 0.02 0.02 0.02 0.03 0.03 0.02 0.02 0.02 0.02 0.02 0.03 0.03 0.03 0.03 0.02 0.02 0.02
0.00 0.00 0.00 0.00 0.00 0.01 0.02 0.01 0.01 0.00 0.00 0.00 0.00 0.00 0.00 0.00 0.00 0.00 0.00 0.00 0.01 0.01 0.01 0.02 0.02 0.03 0.03 0.02 0.02 0.01 0.01 0.01 0.01 0.01 0.01 0.01 0.02 0.03 0.03 0.03 0.03 0.02 0.02 0.03
0.01 0.00 0.00 0.00 0.00 0.00 0.01 0.01 0.01 0.00 0.00 0.00 0.00 0.00 0.00 0.00 0.00 0.00 0.01 0.01 0.01 0.01 0.02 0.02 0.03 0.04 0.05 0.03 0.01 0.01 0.01 0.01 0.01 0.01 0.01 0.02 0.02 0.02 0.02 0.02 0.03 0.02 0.02 0.03
0.01 0.00 0.00 0.00 0.00 0.00 0.00 0.00 0.00 0.00 0.01 0.00 0.01 0.01 0.01 0.01 0.01 0.01 0.01 0.02 0.03 0.03 0.03 0.03 0.03 0.03 0.03 0.02 0.01 0.00 0.01 0.01 0.01 0.01 0.01 0.01 0.01 0.01 0.02 0.02 0.02 0.02 0.04 0.03
0.01 0.01 0.01 0.00 0.00 0.00 0.00 0.00 0.00 0.01 0.01 0.01 0.01 0.01 0.02 0.02 0.02 0.02 0.02 0.03 0.04 0.04 0.03 0.03 0.02 0.01 0.01 0.01 0.00 0.00 0.00 0.01 0.01 0.01 0.01 0.01 0.01 0.01 0.01 0.02 0.01 0.02 0.03 0.02
0.01 0.01 0.01 0.01 0.01 0.00 0.00 0.01 0.01 0.01 0.01 0.02 0.02 0.02 0.02 0.02 0.02 0.02 0.02 0.03 0.03 0.04 0.04 0.02 0.02 0.01 0.01 0.00 0.00 0.00 0.01 0.01 0.01 0.01 0.01 0.01 0.01 0.01 0.01 0.01 0.01 0.01 0.01 0.02
0.02 0.02 0.02 0.02 0.02 0.01 0.01 0.01 0.01 0.01 0.02 0.02 0.02 0.02 0.02 0.04 0.05 0.04 0.04 0.03 0.03 0.05 0.05 0.04 0.03 0.01 0.01 0.01 0.01 0.01 0.01 0.01 0.01 0.01 0.01 0.01 0.01 0.01 0.02 0.02 0.02 0.02 0.02 0.03
0.01 0.01 0.01 0.02 0.02 0.01 0.01 0.01 0.01 0.02 0.04 0.05 0.03 0.02 0.02 0.04 0.07 0.08 0.07 0.06 0.04 0.05 0.06 0.05 0.03 0.02 0.01 0.01 0.01 0.00 0.00 0.00 0.00 0.01 0.01 0.01 0.01 0.01 0.02 0.02 0.02 0.02 0.03 0.03
0.01 0.01 0.01 0.02 0.03 0.02 0.02 0.02 0.01 0.02 0.04 0.07 0.06 0.03 0.01 0.01 0.02 0.05 0.06 0.06 0.05 0.04 0.04 0.03 0.01 0.01 0.01 0.01 0.01 0.01 0.01 0.00 0.00 0.00 0.01 0.01 0.01 0.01 0.02 0.02 0.02 0.03 0.03 0.02
0.01 0.01 0.02 0.02 0.02 0.02 0.02 0.02 0.01 0.02 0.06 0.08 0.08 0.05 0.02 0.01 0.01 0.01 0.02 0.03 0.03 0.03 0.02 0.02 0.01 0.00 0.01 0.01 0.01 0.01 0.01 0.01 0.01 0.01 0.01 0.01 0.01 0.01 0.01 0.01 0.02 0.02 0.02 0.01
MSLP
1008.47 1009.02 1009.47 1009.82 1010.07 1010.25 1010.40 1010.53 1010.66 1010.77 1010.87 1010.94 1010.95 1010.91 1010.83 1010.73 1010.64 1010.58 1010.58 1010.64 1010.76 1010.94 1011.16 1011.40 1011.65 1011.92 1012.19 1012.48 1012.76 1013.04 1013.30 1013.53 1013.70 1013.81 1013.86 1013.85 1013.82 1013.78 1013.75 1013.76 1013.81 1013.90 1014.00 1014.11
1009.18 1009.59 1009.87 1010.05 1010.16 1010.23 1010.31 1010.43 1010.58 1010.74 1010.89 1011.00 1011.02 1010.96 1010.83 1010.65 1010.47 1010.33 1010.27 1010.30 1010.42 1010.63 1010.89 1011.19 1011.51 1011.81 1012.11 1012.41 1012.69 1012.97 1013.23 1013.47 1013.67 1013.81 1013.89 1013.90 1013.87 1013.80 1013.73 1013.68 1013.66 1013.69 1013.76 1013.86
1009.77 1010.01 1010.14 1010.16 1010.15 1010.15 1010.21 1010.36 1010.57 1010.82 1011.04 1011.19 1011.23 1011.14 1010.94 1010.66 1010.38 1010.14 1010.01 1010.00 1010.12 1010.35 1010.67 1011.02 1011.38 1011.72 1012.04 1012.33 1012.60 1012.87 1013.13 1013.38 1013.61 1013.79 1013.90 1013.95 1013.93 1013.85 1013.74 1013.64 1013.56 1013.53 1013.56 1013.64
1010.14 1010.24 1010.22 1010.13 1010.05 1010.04 1010.14 1010.36 1010.68 1011.04 1011.35 1011.55 1011.59 1011.45 1011.15 1010.76 1010.35 1010.00 1009.77 1009.71 1009.81 1010.06 1010.41 1010.81 1011.21 1011.57 1011.89 1012.17 1012.43 1012.68 1012.93 1013.20 1013.46 1013.69 1013.87 1013.96 1013.98 1013.91 1013.78 1013.64 1013.51 1013.42 1013.40 1013.46
1010.28 1010.26 1010.14 1009.99 1009.89 1009.92 1010.11 1010.46 1010.91 1011.38 1011.78 1012.02 1012.04 1011.83 1011.42 1010.89 1010.33 1009.84 1009.51 1009.38 1009.45 1009.70 1010.08 1010.51 1010.93 1011.31 1011.63 1011.89 1012.12 1012.36 1012.62 1012.90 1013.20 1013.50 1013.74 1013.91 1013.98 1013.95 1013.83 1013.66 1013.49 1013.36 1013.30 1013.32
1010.20 1010.09 1009.92 1009.76 1009.71 1009.83 1010.14 1010.63 1011.22 1011.80 1012.28 1012.53 1012.51 1012.21 1011.67 1010.98 1010.26 1009.63 1009.18 1008.97 1009.01 1009.25 1009.63 1010.09 1010.53 1010.91 1011.23 1011.48 1011.69 1011.91 1012.17 1012.48 1012.83 1013.20 1013.52 1013.77 1013.91 1013.93 1013.83 1013.67 1013.47 1013.30 1013.20 1013.18
1009.99 1009.82 1009.63 1009.51 1009.53 1009.76 1010.21 1010.83 1011.54 1012.22 1012.73 1012.98 1012.90 1012.49 1011.81 1010.97 1010.10 1009.33 1008.78 1008.49 1008.49 1008.71 1009.11 1009.58 1010.03 1010.43 1010.74 1010.97 1011.18 1011.39 1011.65 1011.99 1012.38 1012.80 1013.20 1013.53 1013.75 1013.82 1013.76 1013.60 1013.40 1013.21 1013.07 1013.02
1009.72 1009.52 1009.35 1009.28 1009.39 1009.73 1010.29 1011.02 1011.81 1012.53 1013.05 1013.26 1013.10 1012.59 1011.78 1010.81 1009.81 1008.94 1008.31 1007.96 1007.93 1008.15 1008.55 1009.03 1009.50 1009.91 1010.22 1010.45 1010.65 1010.85 1011.12 1011.46 1011.89 1012.36 1012.82 1013.21 1013.48 1013.61 1013.59 1013.45 1013.25 1013.04 1012.88 1012.80
1009.48 1009.28 1009.14 1009.12 1009.31 1009.72 1010.35 1011.13 1011.95 1012.67 1013.15 1013.29 1013.05 1012.45 1011.55 1010.48 1009.41 1008.48 1007.80 1007.43 1007.39 1007.61 1008.03 1008.53 1009.02 1009.43 1009.75 1009.99 1010.17 1010.37 1010.63 1010.98 1011.42 1011.91 1012.40 1012.83 1013.14 1013.31 1013.32 1013.20 1013.01 1012.79 1012.62 1012.52
1009.34 1009.15 1009.03 1009.06 1009.28 1009.72 1010.36 1011.13 1011.91 1012.57 1012.97 1013.04 1012.73 1012.06 1011.11 1010.01 1008.92 1007.98 1007.31 1006.96 1006.92 1007.17 1007.60 1008.12 1008.63 1009.06 1009.39 1009.63 1009.82 1010.01 1010.26 1010.60 1011.02 1011.51 1011.99 1012.43 1012.76 1012.94 1012.97 1012.88 1012.70 1012.50 1012.33 1012.23
1009.32 1009.14 1009.04 1009.07 1009.29 1009.70 1010.29 1010.97 1011.65 1012.21 1012.52 1012.51 1012.14 1011.45 1010.50 1009.44 1008.39 1007.51 1006.88 1006.57 1006.58 1006.85 1007.30 1007.83 1008.35 1008.80 1009.14 1009.39 1009.59 1009.78 1010.02 1010.34 1010.73 1011.18 1011.64 1012.06 1012.37 1012.56 1012.60 1012.53 1012.38 1012.21 1012.06 1011.98
1009.38 1009.22 1009.12 1009.13 1009.30 1009.63 1010.10 1010.66 1011.19 1011.61 1011.82 1011.74 1011.35 1010.67 1009.79 1008.81 1007.87 1007.08 1006.54 1006.29 1006.34 1006.63 1007.09 1007.62 1008.15 1008.60 1008.96 1009.23 1009.44 1009.64 1009.87 1010.17 1010.53 1010.94 1011.36 1011.74 1012.03 1012.21 1012.27 1012.22 1012.11 1011.99 1011.88 1011.84
1009.49 1009.34 1009.22 1009.19 1009.28 1009.49 1009.81 1010.19 1010.56 1010.84 1010.93 1010.80 1010.42 1009.81 1009.03 1008.18 1007.38 1006.71 1006.27 1006.09 1006.16 1006.46 1006.90 1007.42 1007.93 1008.38 1008.75 1009.05 1009.28 1009.50 1009.75 1010.04 1010.38 1010.75 1011.13 1011.47 1011.75 1011.92 1012.00 1012.00 1011.94 1011.88 1011.84 1011.85
1009.59 1009.44 1009.30 1009.21 1009.19 1009.26 1009.41 1009.61 1009.81 1009.95 1009.95 1009.79 1009.44 1008.92 1008.27 1007.58 1006.92 1006.39 1006.04 1005.90 1005.99 1006.26 1006.66 1007.14 1007.62 1008.06 1008.44 1008.76 1009.03 1009.29 1009.57 1009.88 1010.22 1010.58 1010.93 1011.26 1011.52 1011.70 1011.81 1011.86 1011.87 1011.89 1011.93 1012.02
1009.64 1009.48 1009.32 1009.16 1009.03 1008.96 1008.94 1008.97 1009.01 1009.02 1008.96 1008.79 1008.49 1008.07 1007.57 1007.03 1006.51 1006.09 1005.81 1005.69 1005.75 1005.97 1006.30 1006.70 1007.13 1007.55 1007.93 1008.29 1008.62 1008.94 1009.27 1009.62 1009.99 1010.36 1010.73 1011.05 1011.32 1011.53 1011.68 1011.80 1011.89 1011.99 1012.12 1012.29
1009.62 1009.46 1009.26 1009.03 1008.80 1008.60 1008.43 1008.31 1008.22 1008.14 1008.03 1007.87 1007.63 1007.32 1006.95 1006.54 1006.14 1005.80 1005.56 1005.43 1005.43 1005.55 1005.78 1006.09 1006.45 1006.83 1007.22 1007.61 1008.01 1008.41 1008.82 1009.24 1009.66 1010.08 1010.47 1010.82 1011.13 1011.38 1011.58 1011.76 1011.93 1012.12 1012.33 1012.57
1009.54 1009.37 1009.13 1008.85 1008.54 1008.23 1007.95 1007.71 1007.53 1007.37 1007.24 1007.10 1006.92 1006.71 1006.44 1006.14 1005.83 1005.54 1005.29 1005.11 1005.02 1005.03 1005.14 1005.34 1005.62 1005.96 1006.35 1006.77 1007.23 1007.72 1008.22 1008.73 1009.23 1009.71 1010.15 1010.55 1010.90 1011.20 1011.46 1011.70 1011.94 1012.19 1012.46 1012.75
1009.45 1009.25 1008.98 1008.64 1008.27 1007.89 1007.53 1007.22 1006.98 1006.79 1006.64 1006.53 1006.41 1006.27 1006.08 1005.86 1005.59 1005.31 1005.04 1004.79 1004.60 1004.49 1004.47 1004.56 1004.75 1005.04 1005.41 1005.87 1006.39 1006.95 1007.54 1008.14 1008.72 1009.27 1009.77 1010.22 1010.62 1010.96 1011.28 1011.57 1011.85 1012.14 1012.45 1012.76
1009.38 1009.14 1008.83 1008.46 1008.05 1007.63 1007.23 1006.88 1006.61 1006.41 1006.27 1006.18 1006.10 1006.01 1005.89 1005.71 1005.47 1005.18 1004.86 1004.54 1004.25 1004.03 1003.89 1003.87 1003.98 1004.21 1004.57 1005.04 1005.59 1006.22 1006.88 1007.54 1008.19 1008.80 1009.36 1009.85 1010.29 1010.67 1011.01 1011.33 1011.63 1011.94 1012.25 1012.55
1009.35 1009.07 1008.73 1008.34 1007.91 1007.48 1007.07 1006.72 1006.44 1006.24 1006.12 1006.05 1006.01 1005.95 1005.86 1005.70 1005.47 1005.17 1004.81 1004.43 1004.07 1003.75 1003.52 1003.41 1003.44 1003.62 1003.95 1004.41 1004.98 1005.62 1006.32 1007.02 1007.71 1008.36 1008.94 1009.46 1009.92 1010.31 1010.67 1010.99 1011.29 1011.58 1011.86 1012.14
1009.37 1009.05 1008.69 1008.29 1007.87 1007.45 1007.06 1006.72 1006.46 1006.28 1006.18 1006.12 1006.10 1006.06 1005.99 1005.84 1005.61 1005.30 1004.93 1004.52 1004.10 1003.73 1003.44 1003.26 1003.24 1003.36 1003.65 1004.07 1004.62 1005.25 1005.94 1006.64 1007.33 1007.97 1008.56 1009.08 1009.53 1009.92 1010.26 1010.56 1010.84 1011.10 1011.34 1011.57
1009.44 1009.08 1008.71 1008.32 1007.92 1007.53 1007.17 1006.87 1006.64 1006.48 1006.38 1006.34 1006.32 1006.29 1006.22 1006.09 1005.87 1005.57 1005.20 1004.79 1004.37 1003.98 1003.66 1003.45 1003.38 1003.46 1003.69 1004.06 1004.55 1005.13 1005.76 1006.42 1007.06 1007.67 1008.22 1008.72 1009.14 1009.51 1009.82 1010.09 1010.32 1010.53 1010.73 1010.91
1009.52 1009.15 1008.78 1008.40 1008.04 1007.69 1007.38 1007.11 1006.91 1006.77 1006.68 1006.64 1006.61 1006.58 1006.51 1006.38 1006.19 1005.91 1005.58 1005.20 1004.81 1004.44 1004.13 1003.92 1003.82 1003.86 1004.03 1004.33 1004.74 1005.23 1005.78 1006.35 1006.91 1007.45 1007.94 1008.38 1008.75 1009.07 1009.34 1009.57 1009.76 1009.93 1010.07 1010.21
1009.60 1009.22 1008.87 1008.53 1008.21 1007.91 1007.64 1007.41 1007.22 1007.08 1006.99 1006.93 1006.89 1006.84 1006.77 1006.66 1006.49 1006.26 1005.98 1005.67 1005.34 1005.03 1004.76 1004.56 1004.46 1004.46 1004.57 1004.79 1005.10 1005.49 1005.92 1006.38 1006.84 1007.28 1007.69 1008.05 1008.36 1008.62 1008.84 1009.01 1009.16 1009.28 1009.39 1009.50
1009.65 1009.29 1008.96 1008.66 1008.38 1008.13 1007.89 1007.68 1007.51 1007.36 1007.25 1007.16 1007.09 1007.02 1006.94 1006.83 1006.70 1006.53 1006.32 1006.09 1005.85 1005.61 1005.40 1005.25 1005.15 1005.13 1005.19 1005.33 1005.54 1005.81 1006.12 1006.46 1006.80 1007.13 1007.43 1007.70 1007.94 1008.13 1008.28 1008.41 1008.51 1008.59 1008.67 1008.76
1009.66 1009.33 1009.04 1008.77 1008.54 1008.31 1008.10 1007.90 1007.71 1007.54 1007.39 1007.26 1007.15 1007.05 1006.96 1006.86 1006.76 1006.65 1006.52 1006.38 1006.23 1006.08 1005.95 1005.84 1005.77 1005.74 1005.76 1005.83 1005.95 1006.11 1006.30 1006.51 1006.73 1006.95 1007.14 1007.32 1007.46 1007.58 1007.66 1007.73 1007.77 1007.82 1007.87 1007.95
Thickness
5828 5822 5818 5826 5832 5832 5829 5823 5820 5826 5837 5830 5824 5825 5830 5834 5832 5828 5826 5825 5823 5822 5825 5823 5821 5819 5816 5812 5808 5805 5802 5800 5798 5795 5792 5789 5786 5786 5784 5783 5780 5778 5776 5775
5817 5816 5830 5837 5835 5830 5826 5820 5820 5825 5834 5828 5824 5824 5832 5834 5831 5831 5828 5826 5826 5824 5823 5821 5820 5819 5817 5813 5810 5807 5804 5802 5799 5796 5793 5790 5788 5786 5784 5782 5778 5777 5775 5773
5812 5825 5835 5828 5824 5821 5823 5822 5821 5819 5824 5829 5822 5818 5825 5833 5834 5832 5832 5831 5831 5827 5824 5822 5820 5819 5818 5815 5812 5810 5806 5803 5800 5797 5794 5790 5786 5784 5782 5779 5777 5775 5773 5771
5819 5830 5826 5822 5821 5822 5816 5829 5826 5820 5814 5816 5818 5806 5819 5828 5826 5828 5829 5830 5830 5830 5827 5825 5822 5820 5820 5818 5816 5811 5806 5803 5799 5796 5793 5788 5783 5780 5779 5777 5775 5772 5770 5769
5815 5823 5820 5816 5823 5825 5822 5830 5825 5821 5816 5813 5816 5809 5820 5827 5821 5825 5829 5830 5832 5831 5829 5826 5824 5823 5823 5821 5817 5812 5806 5802 5799 5796 5793 5787 5784 5781 5779 5776 5771 5769 5768 5766
5821 5829 5828 5826 5830 5830 5827 5822 5818 5818 5817 5797 5810 5805 5809 5826 5824 5827 5831 5831 5831 5831 5830 5827 5826 5824 5821 5821 5817 5813 5806 5801 5798 5795 5792 5787 5783 5779 5775 5771 5768 5766 5765 5763
5803 5815 5826 5830 5818 5821 5820 5808 5795 5790 5791 5796 5813 5805 5812 5828 5832 5831 5830 5830 5831 5831 5829 5825 5822 5820 5818 5817 5815 5812 5806 5800 5797 5794 5791 5787 5782 5778 5772 5769 5766 5764 5762 5760
5791 5795 5815 5822 5819 5813 5815 5814 5792 5779 5784 5800 5805 5801 5818 5830 5833 5833 5833 5832 5830 5829 5828 5825 5823 5820 5817 5815 5813 5810 5805 5800 5796 5792 5788 5785 5781 5778 5773 5768 5765 5762 5760 5757
5797 5796 5818 5822 5826 5821 5808 5810 5822 5807 5800 5793 5801 5810 5819 5827 5824 5826 5827 5826 5825 5825 5824 5823 5822 5819 5815 5813 5810 5808 5803 5798 5794 5791 5786 5781 5778 5774 5770 5766 5763 5760 5757 5755
5806 5792 5808 5816 5819 5817 5818 5818 5809 5798 5776 5774 5790 5798 5806 5810 5814 5819 5821 5821 5821 5822 5821 5820 5819 5817 5814 5812 5809 5806 5801 5796 5792 5788 5784 5781 5775 5770 5766 5762 5757 5754 5752 5749
5807 5793 5797 5803 5800 5803 5802 5801 5801 5800 5797 5779 5775 5795 5821 5815 5817 5816 5818 5819 5819 5818 5818 5817 5816 5814 5812 5809 5806 5801 5797 5792 5788 5784 5780 5776 5771 5767 5762 5758 5754 5751 5748 5745
5801 5798 5790 5799 5812 5815 5810 5806 5800 5785 5783 5789 5785 5795 5824 5821 5821 5818 5816 5815 5814 5814 5815 5814 5812 5809 5806 5803 5800 5796 5793 5789 5785 5781 5776 5771 5767 5763 5759 5755 5751 5747 5743 5741
5794 5789 5774 5780 5791 5798 5798 5802 5803 5803 5796 5788 5782 5792 5819 5817 5814 5813 5810 5807 5807 5807 5807 5807 5805 5802 5799 5797 5794 5792 5788 5786 5783 5778 5772 5767 5763 5759 5754 5751 5747 5743 5739 5737
5792 5788 5781 5775 5785 5796 5791 5794 5797 5794 5789 5787 5790 5794 5804 5805 5803 5803 5802 5800 5800 5799 5798 5799 5797 5794 5792 5790 5788 5785 5783 5781 5778 5773 5768 5762 5758 5755 5750 5747 5743 5739 5736 5733
5786 5778 5783 5789 5794 5795 5792 5790 5790 5788 5791 5788 5792 5794 5797 5800 5799 5798 5796 5794 5792 5790 5790 5790 5789 5787 5785 5783 5781 5778 5776 5774 5772 5767 5762 5758 5754 5751 5746 5742 5738 5735 5731 5729
5779 5772 5774 5774 5784 5785 5781 5786 5787 5786 5788 5788 5788 5788 5800 5799 5796 5791 5789 5787 5785 5783 5783 5783 5783 5782 5779 5777 5774 5772 5770 5767 5763 5759 5755 5752 5749 5745 5740 5737 5733 5729 5726 5723
5768 5764 5760 5764 5775 5771 5766 5779 5783 5782 5786 5785 5780 5785 5790 5785 5782 5782 5783 5782 5779 5778 5778 5777 5776 5775 5773 5771 5769 5766 5763 5760 5755 5751 5749 5745 5742 5738 5735 5732 5727 5723 5720 5717
5756 5754 5758 5759 5755 5738 5768 5786 5785 5778 5778 5782 5780 5780 5780 5777 5777 5777 5777 5775 5772 5771 5770 5769 5770 5769 5768 5767 5764 5761 5757 5753 5748 5744 5741 5739 5735 5732 5728 5724 5720 5716 5713 5710
5758 5749 5750 5750 5745 5751 5762 5769 5770 5765 5762 5770 5769 5769 5770 5772 5770 5767 5768 5768 5766 5765 5764 5763 5763 5763 5761 5759 5757 5753 5749 5746 5742 5738 5735 5732 5729 5725 5721 5717 5713 5710 5706 5703
5746 5745 5743 5742 5734 5736 5751 5762 5768 5761 5748 5760 5760 5759 5760 5761 5756 5756 5758 5758 5757 5756 5756 5756 5756 5754 5751 5749 5749 5745 5741 5737 5734 5731 5728 5726 5723 5719 5714 5711 5707 5704 5700 5697
5730 5730 5732 5734 5732 5742 5746 5754 5755 5736 5738 5751 5753 5752 5752 5750 5751 5751 5751 5748 5747 5747 5747 5747 5746 5743 5741 5740 5739 5736 5732 5729 5728 5726 5723 5718 5715 5712 5708 5705 5701 5697 5694 5691
5723 5724 5723 5726 5721 5724 5736 5740 5734 5732 5739 5741 5742 5743 5742 5742 5741 5741 5740 5739 5738 5738 5737 5737 5735 5733 5732 5731 5728 5725 5722 5722 5720 5718 5714 5711 5707 5705 5703 5697 5693 5690 5686 5683
5716 5717 5721 5719 5716 5718 5725 5726 5727 5730 5728 5730 5732 5733 5733 5731 5729 5729 5729 5728 5729 5728 5727 5727 5724 5722 5721 5719 5718 5714 5713 5712 5710 5707 5704 5702 5699 5696 5694 5690 5687 5683 5680 5680
5706 5708 5709 5707 5709 5711 5715 5717 5718 5719 5719 5721 5723 5724 5724 5721 5720 5719 5719 5718 5718 5718 5717 5716 5714 5712 5709 5708 5708 5706 5704 5703 5701 5698 5695 5694 5691 5689 5686 5683 5683 5679 5677 5675
5696 5696 5697 5694 5699 5701 5704 5705 5707 5708 5710 5711 5713 5714 5714 5713 5711 5710 5708 5708 5707 5707 5707 5706 5703 5701 5699 5698 5697 5696 5695 5693 5690 5688 5686 5685 5684 5682 5678 5676 5673 5672 5671 5669
5690 5688 5687 5687 5691 5691 5692 5697 5698 5697 5697 5700 5701 5702 5703 5703 5700 5700 5698 5697 5697 5696 5696 5695 5694 5692 5691 5689 5688 5686 5685 5683 5680 5679 5678 5678 5676 5674 5671 5668 5666 5662 5660 5657